• Join FlightAware (Why Join?)
  • Login
  • US Flag 
12:25AM EDT


 

Airport Tracker/Info


-or-


 

Live Flight TrackerFlight Track Log ✈ AAY825 ✈ 01-Aug-2014 ✈ KDSM - KPIE

Flight Track Log - Related Links

Times and Time Zones

All times are in EDT time to prevent confusion due to time zone crossing. See the AAY825 flight status page for this flight to view local times or setup timezone preferences in your user account.

Time Position Orientation Groundspeed Altitude Reporting Facility
EDT Latitude Longitude Course Direction KTS MPH feet Rate Location/Type
11:31AM 41.5200 -93.6839 226° Southwest 184 212 1,900  Level Minneapolis Center
11:32AM 41.4997 -93.7119 227° Southwest 203 234 2,800 1,740 Climbing Minneapolis Center
11:33AM 41.4428 -93.6633 147° Southeast 274 315 4,800 2,340 Climbing Minneapolis Center
11:34AM 41.3753 -93.6031 146° Southeast 283 326 7,800 2,460 Climbing Minneapolis Center
11:35AM 41.3117 -93.5483 147° Southeast 283 326 10,200 1,740 Climbing Minneapolis Center
11:36AM 41.2342 -93.4867 149° Southeast 312 359 11,400 1,560 Climbing Minneapolis Center
11:37AM 41.1439 -93.4114 148° Southeast 366 421 13,500 2,220 Climbing Minneapolis Center
11:37AM 41.0894 -93.3614 145° Southeast 385 443 14,900 2,100 Climbing Chicago Center
11:38AM 40.9914 -93.2925 152° Southeast 414 476 16,800 1,860 Climbing Chicago Center
11:39AM 40.8836 -93.2317 157° South 419 482 18,800 1,800 Climbing Chicago Center
11:40AM 40.7511 -93.1519 155° Southeast 437 503 20,600 1,680 Climbing Chicago Center
11:42AM 40.6367 -93.0856 156° South 448 516 22,300 1,500 Climbing Chicago Center
11:43AM 40.5219 -93.0094 153° Southeast 461 531 23,700 1,380 Climbing Chicago Center
11:44AM 40.4261 -92.8778 134° Southeast 477 549 25,200 1,440 Climbing Kansas City Center
11:45AM 40.3228 -92.7608 139° Southeast 487 560 26,600 1,440 Climbing Kansas City Center
11:46AM 40.2169 -92.6544 142° Southeast 485 558 28,200 1,140 Climbing Kansas City Center
11:47AM 40.1092 -92.5486 143° Southeast 485 558 29,000 600 Climbing Kansas City Center
11:48AM 40.0003 -92.4397 143° Southeast 479 551 29,500 780 Climbing Kansas City Center
11:49AM 39.8956 -92.3350 142° Southeast 479 551 30,700 1,140 Climbing Kansas City Center
11:50AM 39.7703 -92.2111 143° Southeast 478 550 31,900 720 Climbing Kansas City Center
11:51AM 39.6653 -92.1078 143° Southeast 476 548 32,200 480 Climbing Kansas City Center
11:52AM 39.5558 -92.0019 143° Southeast 488 562 32,900 360 Climbing Kansas City Center
11:53AM 39.4478 -91.8967 143° Southeast 490 564 33,000  Climbing Kansas City Center
11:54AM 39.3553 -91.7672 133° Southeast 491 565 33,000  Level Kansas City Center
11:55AM 39.2489 -91.6306 135° Southeast 489 563 33,000  Level Kansas City Center
11:56AM 39.1389 -91.5308 145° Southeast 486 559 33,000  Level Kansas City Center
11:57AM 39.0297 -91.4308 145° Southeast 486 559 33,000  Level Kansas City Center
11:58AM 38.8989 -91.3036 143° Southeast 489 563 33,000  Level Kansas City Center
11:59AM 38.7911 -91.1989 143° Southeast 489 563 33,000  Level Kansas City Center
12:00PM 38.6811 -91.0956 144° Southeast 490 564 33,000  Level Kansas City Center
12:01PM 38.5694 -90.9956 145° Southeast 490 564 33,000  Level Kansas City Center
12:02PM 38.4597 -90.8939 144° Southeast 490 564 33,000  Level Kansas City Center
12:03PM 38.3283 -90.7714 144° Southeast 490 564 33,000  Level Kansas City Center
12:04PM 38.2197 -90.6683 143° Southeast 491 565 33,000  Level Kansas City Center
12:05PM 38.1103 -90.5664 144° Southeast 491 565 33,000  Level Kansas City Center
12:06PM 37.9992 -90.4689 145° Southeast 491 565 33,000  Level Kansas City Center
12:07PM 37.8897 -90.3669 144° Southeast 491 565 33,000  Level Kansas City Center
12:08PM 37.7578 -90.2478 144° Southeast 490 564 33,000  Level Kansas City Center
12:09PM 37.6481 -90.1472 144° Southeast 490 564 33,000  Level Kansas City Center
12:10PM 37.5467 -90.0569 145° Southeast 488 562 33,000  Level Kansas City Center
12:11PM 37.4147 -89.9367 144° Southeast 488 562 33,000  Level Kansas City Center
12:12PM 37.3261 -89.8578 145° Southeast 488 562 33,000  Level Memphis Center
12:13PM 37.1936 -89.7378 144° Southeast 489 563 33,000  Level Memphis Center
12:14PM 37.0833 -89.6386 144° Southeast 489 563 33,000  Level Memphis Center
12:16PM 36.9728 -89.5411 145° Southeast 488 562 33,000  Level Memphis Center
12:17PM 36.8625 -89.4442 145° Southeast 488 562 33,000  Level Memphis Center
12:18PM 36.7531 -89.3469 145° Southeast 485 558 33,000  Level Memphis Center
12:19PM 36.6428 -89.2494 145° Southeast 483 556 33,000  Level Memphis Center
12:20PM 36.5317 -89.1517 145° Southeast 483 556 33,000  Level Memphis Center
12:21PM 36.4194 -89.0542 145° Southeast 483 556 33,000  Level Memphis Center
12:22PM 36.2864 -88.9381 145° Southeast 482 555 33,000  Level Memphis Center
12:23PM 36.1769 -88.8444 145° Southeast 479 551 33,000  Level Memphis Center
12:24PM 36.0669 -88.7503 145° Southeast 479 551 33,000  Level Memphis Center
12:25PM 35.9567 -88.6564 145° Southeast 478 550 33,000  Level Memphis Center
12:26PM 35.8467 -88.5611 145° Southeast 479 551 33,000  Level Memphis Center
12:27PM 35.7367 -88.4681 146° Southeast 479 551 33,000  Level Memphis Center
12:28PM 35.6253 -88.3736 145° Southeast 480 552 33,000  Level Memphis Center
12:29PM 35.4931 -88.2606 145° Southeast 481 554 33,000  Level Memphis Center
12:30PM 35.3978 -88.1800 145° Southeast 484 557 33,000  Level Memphis Center
12:31PM 35.2639 -88.0689 146° Southeast 484 557 33,000  Level Memphis Center
12:32PM 35.1533 -87.9764 146° Southeast 484 557 33,000  Level Memphis Center
12:33PM 35.0422 -87.8819 145° Southeast 484 557 33,000  Level Memphis Center
12:34PM 34.9322 -87.7897 145° Southeast 484 557 33,000  Level Memphis Center
12:35PM 34.8217 -87.6994 146° Southeast 482 555 33,000  Level Memphis Center
12:36PM 34.7108 -87.6083 146° Southeast 480 552 33,000  Level Memphis Center
12:37PM 34.5789 -87.4981 145° Southeast 479 551 33,000  Level Memphis Center
12:38PM 34.4850 -87.4203 146° Southeast 479 551 33,000  Level Memphis Center
12:39PM 34.3511 -87.3139 147° Southeast 480 552 33,000  Level Memphis Center
12:40PM 34.2411 -87.2244 146° Southeast 480 552 33,000  Level Memphis Center
12:41PM 34.1314 -87.1342 146° Southeast 479 551 33,000  Level Memphis Center
12:42PM 34.0219 -87.0469 147° Southeast 474 545 33,000  Level Memphis Center
12:43PM 33.9122 -86.9592 146° Southeast 474 545 33,000  Level Memphis Center
12:44PM 33.8197 -86.8842 146° Southeast 476 548 33,000  Level Atlanta Center
12:45PM 33.7111 -86.7958 146° Southeast 476 548 33,000  Level Atlanta Center
12:46PM 33.6047 -86.7100 146° Southeast 476 548 33,000  Level Atlanta Center
12:47PM 33.4936 -86.6244 147° Southeast 476 548 33,000  Level Atlanta Center
12:48PM 33.3847 -86.5392 147° Southeast 476 548 33,000  Level Atlanta Center
12:49PM 33.2906 -86.4594 145° Southeast 476 548 33,000  Level Atlanta Center
12:50PM 33.1814 -86.3719 146° Southeast 471 542 33,000  Level Atlanta Center
12:51PM 33.0725 -86.2872 147° Southeast 471 542 33,000  Level Atlanta Center
12:52PM 32.9633 -86.2028 147° Southeast 471 542 33,000  Level Atlanta Center
12:53PM 32.8522 -86.1133 146° Southeast 476 548 33,000  Level Atlanta Center
12:54PM 32.7408 -86.0269 147° Southeast 476 548 33,000  Level Atlanta Center
12:55PM 32.6317 -85.9406 146° Southeast 476 548 33,000  Level Atlanta Center
12:56PM 32.5056 -85.8467 148° Southeast 476 548 33,000  Level Atlanta Center
12:57PM 32.3942 -85.7583 146° Southeast 481 554 33,000  Level Atlanta Center
12:58PM 32.2786 -85.6700 147° Southeast 487 560 33,000  Level Atlanta Center
12:59PM 32.1647 -85.5844 148° Southeast 487 560 33,000  Level Atlanta Center
01:03PM 31.7722 -85.2875 147° Southeast 486 559 33,000  Level Jacksonville Center
01:04PM 31.6569 -85.1989 147° Southeast 501 577 33,000  Level Jacksonville Center
01:05PM 31.5539 -85.1233 148° Southeast 484 557 33,000  Level Jacksonville Center
01:06PM 31.4428 -85.0356 146° Southeast 484 557 33,000  Level Jacksonville Center
01:07PM 31.3292 -84.9550 149° Southeast 484 557 33,000 -300 Level Jacksonville Center
01:08PM 31.2117 -84.8722 149° Southeast 484 557 32,500 -1,140 Descending Jacksonville Center
01:09PM 31.0958 -84.7897 149° Southeast 484 557 30,800 -1,800 Descending Jacksonville Center
01:10PM 30.9822 -84.7075 148° Southeast 479 551 28,900 -1,860 Descending Jacksonville Center
01:11PM 30.8664 -84.6256 149° Southeast 484 557 27,100 -960 Descending Jacksonville Center
01:12PM 30.7425 -84.5361 148° Southeast 479 551 27,000 -60 Descending Jacksonville Center
01:13PM 30.6367 -84.4667 151° Southeast 479 551 27,000  Level Jacksonville Center
01:14PM 30.5083 -84.3753 148° Southeast 485 558 27,000  Level Jacksonville Center
01:15PM 30.3986 -84.2967 148° Southeast 475 547 27,000  Level Jacksonville Center
01:16PM 30.2931 -84.2231 149° Southeast 460 529 27,000  Level Jacksonville Center
01:17PM 30.1872 -84.1517 150° Southeast 455 524 27,000  Level Jacksonville Center
01:18PM 30.0794 -84.0783 150° Southeast 443 510 27,000  Level Jacksonville Center
01:19PM 29.9778 -84.0053 148° Southeast 438 504 27,000  Level Jacksonville Center
01:20PM 29.8739 -83.9322 149° Southeast 438 504 27,000  Level Jacksonville Center
01:21PM 29.7722 -83.8642 150° Southeast 438 504 27,000  Level Jacksonville Center
01:22PM 29.6642 -83.7983 152° Southeast 438 504 27,000 -420 Level Jacksonville Center
01:23PM 29.5603 -83.7306 150° Southeast 433 498 26,200 -540 Descending Jacksonville Center
01:24PM 29.4583 -83.6631 150° Southeast 433 498 26,000 -120 Descending Jacksonville Center
01:25PM 29.3544 -83.5956 150° Southeast 428 493 26,000  Level Jacksonville Center
01:26PM 29.2503 -83.5306 151° Southeast 428 493 26,000 -60 Level Jacksonville Center
01:27PM 29.1483 -83.4656 151° Southeast 428 493 25,900 -960 Descending Jacksonville Center
01:28PM 29.0567 -83.4081 151° Southeast 428 493 24,100 -2,100 Descending Jacksonville Center
01:29PM 28.9608 -83.3433 149° Southeast 409 471 21,700 -2,220 Descending Jacksonville Center
01:30PM 28.8694 -83.2861 151° Southeast 390 449 19,700 -2,100 Descending Jacksonville Center
01:31PM 28.7819 -83.2336 152° Southeast 371 427 17,500 -1,920 Descending Jacksonville Center
01:33PM 28.5833 -83.1167 153° Southeast 347 399 13,700 -1,560 Descending Tampa TRACON
01:34PM 28.5167 -83.0667 147° Southeast 332 382 12,800 -1,140 Descending Tampa TRACON
01:35PM 28.4333 -83.0167 152° Southeast 291 335 11,500 -1,140 Descending Tampa TRACON
01:36PM 28.3500 -82.9833 161° South 293 337 10,400 -1,140 Descending Tampa TRACON
01:37PM 28.2667 -82.9500 161° South 292 336 9,200 -1,200 Descending Tampa TRACON
01:38PM 28.2000 -82.9333 168° South 286 329 8,200 -1,320 Descending Tampa TRACON
01:38PM 28.1758 -82.9142 145° Southeast 287 330 7,500 -1,500 Descending Miami Center
01:39PM 28.1036 -82.8861 161° South 279 321 5,900 -1,680 Descending Miami Center
01:40PM 28.0500 -82.8667 162° South 276 318 4,900 -1,260 Descending Tampa TRACON
01:41PM 27.9833 -82.8500 168° South 266 306 4,000 -900 Descending Tampa TRACON
01:42PM 27.9167 -82.8167 156° South 263 303 3,200 -480 Descending Tampa TRACON
01:43PM 27.8500 -82.8000 168° South 249 287 3,100 -60 Descending Tampa TRACON
01:44PM 27.8000 -82.7667 149° Southeast 212 244 3,100 -600 Level Tampa TRACON
01:45PM 27.8167 -82.7000 74° East 188 216 2,000 -1,080 Descending Tampa TRACON
01:46PM 27.8500 -82.6833 24° Northeast 167 192 1,000 -900 Descending Tampa TRACON
01:47PM 27.8833 -82.6833 360° North 138 159 300 -720 Descending Tampa TRACON